Station Historical Data
Daily Summary for January 24, 2017 Units:  English    Metric   Both
« Previous Day
Next Day »
Daily Weekly Monthly Yearly Custom
  High: Low: Average:
Temperature: 34.4 °F 31.4 °F 32.7 °F
Dew Point: 30.3 °F 27.9 °F 29.4 °F
Humidity: 93% 78% 88%
Wind Speed: 12.0mph 0.0mph 3.2mph
Wind Gust: 15.0mph - -
Wind- - SSW
Pressure: 29.73 in 29.67 in -
Precipitation: 0.00 in    
Historical Graphs
 
 
Tabular Data for January 24, 2017
Time Temperature Dew Point Pressure Wind Wind Speed Wind Gust Humidity Rainfall Rate (Hourly)
00:04 34.4 °F 28.2 °F 29.72 in NE 7.0 mph 13.0 mph 78% 0.00 in
00:09 34.4 °F 28.2 °F 29.72 in NE 6.0 mph 10.0 mph 78% 0.00 in
00:14 34.4 °F 28.2 °F 29.72 in ENE 3.0 mph 13.0 mph 78% 0.00 in
00:19 34.4 °F 28.2 °F 29.72 in NE 6.0 mph 12.0 mph 78% 0.00 in
00:24 34.4 °F 28.2 °F 29.72 in ENE 3.0 mph 13.0 mph 78% 0.00 in
00:29 34.4 °F 28.2 °F 29.72 in NE 6.0 mph 11.0 mph 78% 0.00 in
00:34 34.3 °F 28.2 °F 29.72 in NE 6.0 mph 11.0 mph 78% 0.00 in
00:39 34.3 °F 28.2 °F 29.71 in NE 6.0 mph 15.0 mph 78% 0.00 in
00:44 34.3 °F 28.2 °F 29.72 in NE 5.0 mph 15.0 mph 78% 0.00 in
00:49 34.3 °F 28.2 °F 29.71 in NE 7.0 mph 12.0 mph 78% 0.00 in
00:54 34.3 °F 28.2 °F 29.71 in NE 4.0 mph 9.0 mph 78% 0.00 in
00:59 34.3 °F 28.2 °F 29.71 in NE 3.0 mph 10.0 mph 78% 0.00 in
01:04 34.3 °F 28.2 °F 29.71 in ENE 7.0 mph 10.0 mph 78% 0.00 in
01:09 34.2 °F 28.1 °F 29.71 in NE 5.0 mph 10.0 mph 78% 0.00 in
01:14 34.3 °F 28.2 °F 29.71 in NE 5.0 mph 10.0 mph 78% 0.00 in
01:19 34.2 °F 28.1 °F 29.70 in NE 6.0 mph 9.0 mph 78% 0.00 in
01:24 34.2 °F 28.4 °F 29.71 in NE 2.0 mph 8.0 mph 79% 0.00 in
01:29 34.1 °F 28.3 °F 29.70 in NE 4.0 mph 9.0 mph 79% 0.00 in
01:34 34.1 °F 28.3 °F 29.70 in NE 8.0 mph 9.0 mph 79% 0.00 in
01:39 34.1 °F 28.0 °F 29.70 in NE 5.0 mph 10.0 mph 78% 0.00 in
01:44 34.1 °F 28.0 °F 29.70 in NE 6.0 mph 11.0 mph 78% 0.00 in
01:49 34.0 °F 28.2 °F 29.70 in NE 6.0 mph 11.0 mph 79% 0.00 in
01:54 34.1 °F 28.0 °F 29.70 in NE 5.0 mph 10.0 mph 78% 0.00 in
01:59 34.0 °F 27.9 °F 29.70 in NE 5.0 mph 11.0 mph 78% 0.00 in
02:04 34.0 °F 27.9 °F 29.70 in NE 4.0 mph 9.0 mph 78% 0.00 in
02:09 34.0 °F 28.2 °F 29.70 in East 5.0 mph 10.0 mph 79% 0.00 in
02:14 34.0 °F 28.2 °F 29.70 in NE 7.0 mph 11.0 mph 79% 0.00 in
02:19 34.0 °F 28.2 °F 29.70 in NNE 7.0 mph 11.0 mph 79% 0.00 in
02:24 33.9 °F 28.4 °F 29.70 in NE 3.0 mph 9.0 mph 80% 0.00 in
02:29 33.8 °F 28.3 °F 29.70 in NE 6.0 mph 10.0 mph 80% 0.00 in
02:34 33.8 °F 28.6 °F 29.70 in NE 5.0 mph 10.0 mph 81% 0.00 in
02:39 33.7 °F 28.5 °F 29.70 in NE 5.0 mph 13.0 mph 81% 0.00 in
02:44 33.5 °F 28.3 °F 29.70 in NE 7.0 mph 13.0 mph 81% 0.00 in
02:49 33.5 °F 28.6 °F 29.70 in NE 6.0 mph 13.0 mph 82% 0.00 in
02:54 33.5 °F 28.9 °F 29.70 in NE 5.0 mph 9.0 mph 83% 0.00 in
02:59 33.3 °F 28.7 °F 29.70 in NE 5.0 mph 10.0 mph 83% 0.00 in
03:04 33.3 °F 28.7 °F 29.70 in NE 6.0 mph 10.0 mph 83% 0.00 in
03:09 33.2 °F 28.9 °F 29.69 in NE 5.0 mph 9.0 mph 84% 0.00 in
03:14 33.1 °F 28.8 °F 29.69 in ENE 5.0 mph 9.0 mph 84% 0.00 in
03:19 33.0 °F 29.0 °F 29.69 in ENE 4.0 mph 8.0 mph 85% 0.00 in
03:24 33.0 °F 29.0 °F 29.69 in NE 7.0 mph 9.0 mph 85% 0.00 in
03:29 32.9 °F 29.2 °F 29.69 in ENE 7.0 mph 8.0 mph 86% 0.00 in
03:34 32.8 °F 29.4 °F 29.69 in NE 2.0 mph 8.0 mph 87% 0.00 in
03:39 32.7 °F 29.3 °F 29.69 in ENE 3.0 mph 8.0 mph 87% 0.00 in
03:44 32.7 °F 29.5 °F 29.68 in NE 3.0 mph 8.0 mph 88% 0.00 in
03:49 32.6 °F 29.4 °F 29.69 in NE 3.0 mph 8.0 mph 88% 0.00 in
03:54 32.5 °F 29.3 °F 29.69 in NE 4.0 mph 7.0 mph 88% 0.00 in
03:59 32.5 °F 29.6 °F 29.69 in NE 3.0 mph 7.0 mph 89% 0.00 in
04:04 32.5 °F 29.6 °F 29.68 in NE 3.0 mph 7.0 mph 89% 0.00 in
04:09 32.5 °F 29.6 °F 29.68 in NE 5.0 mph 9.0 mph 89% 0.00 in
04:14 32.4 °F 29.5 °F 29.68 in NE 4.0 mph 9.0 mph 89% 0.00 in
04:19 32.3 °F 29.7 °F 29.68 in NE 3.0 mph 8.0 mph 90% 0.00 in
04:24 32.3 °F 29.7 °F 29.68 in NE 2.0 mph 7.0 mph 90% 0.00 in
04:29 32.3 °F 29.7 °F 29.68 in NNE 3.0 mph 7.0 mph 90% 0.00 in
04:34 32.3 °F 29.7 °F 29.68 in NE 1.0 mph 4.0 mph 90% 0.00 in
04:39 32.3 °F 29.7 °F 29.68 in NNE 2.0 mph 5.0 mph 90% 0.00 in
04:44 32.3 °F 30.0 °F 29.68 in NE 2.0 mph 5.0 mph 91% 0.00 in
04:49 32.2 °F 29.9 °F 29.68 in NE 2.0 mph 7.0 mph 91% 0.00 in
04:54 32.2 °F 29.9 °F 29.68 in NE 3.0 mph 7.0 mph 91% 0.00 in
04:59 32.2 °F 29.9 °F 29.68 in NE 3.0 mph 6.0 mph 91% 0.00 in
05:04 32.2 °F 29.9 °F 29.68 in NNE 3.0 mph 4.0 mph 91% 0.00 in
05:09 32.1 °F 29.8 °F 29.67 in NNE 1.0 mph 5.0 mph 91% 0.00 in
05:14 32.1 °F 29.8 °F 29.67 in NNE 2.0 mph 5.0 mph 91% 0.00 in
05:19 32.1 °F 29.8 °F 29.67 in NNE 3.0 mph 5.0 mph 91% 0.00 in
05:24 32.2 °F 30.1 °F 29.67 in NE 3.0 mph 6.0 mph 92% 0.00 in
05:29 32.2 °F 30.1 °F 29.67 in NE 2.0 mph 6.0 mph 92% 0.00 in
05:34 32.2 °F 30.1 °F 29.67 in NNE 2.0 mph 3.0 mph 92% 0.00 in
05:39 32.1 °F 30.0 °F 29.68 in North 2.0 mph 5.0 mph 92% 0.00 in
05:44 32.2 °F 30.1 °F 29.67 in NNE 2.0 mph 5.0 mph 92% 0.00 in
05:49 32.3 °F 30.2 °F 29.67 in North 2.0 mph 5.0 mph 92% 0.00 in
05:54 32.2 °F 30.1 °F 29.67 in NNE 3.0 mph 4.0 mph 92% 0.00 in
05:59 32.3 °F 30.2 °F 29.67 in NNE 3.0 mph 4.0 mph 92% 0.00 in
06:04 32.2 °F 30.1 °F 29.68 in NE 3.0 mph 8.0 mph 92% 0.00 in
06:09 32.2 °F 30.1 °F 29.68 in NE 4.0 mph 6.0 mph 92% 0.00 in
06:14 32.2 °F 30.1 °F 29.67 in NNE 3.0 mph 5.0 mph 92% 0.00 in
06:19 32.1 °F 30.0 °F 29.68 in NNE 3.0 mph 6.0 mph 92% 0.00 in
06:24 32.1 °F 30.0 °F 29.68 in NNE 3.0 mph 6.0 mph 92% 0.00 in
06:29 32.1 °F 30.0 °F 29.68 in NNE 3.0 mph 5.0 mph 92% 0.00 in
06:34 32.1 °F 30.0 °F 29.68 in NNE 3.0 mph 5.0 mph 92% 0.00 in
06:39 32.0 °F 29.9 °F 29.68 in NNE 3.0 mph 6.0 mph 92% 0.00 in
06:44 32.0 °F 29.9 °F 29.68 in NNE 3.0 mph 6.0 mph 92% 0.00 in
06:49 32.0 °F 29.9 °F 29.68 in North 3.0 mph 6.0 mph 92% 0.00 in
06:54 32.0 °F 29.9 °F 29.68 in North 2.0 mph 5.0 mph 92% 0.00 in
06:59 31.9 °F 29.8 °F 29.68 in NE 2.0 mph 7.0 mph 92% 0.00 in
07:04 31.9 °F 29.8 °F 29.68 in NNE 3.0 mph 4.0 mph 92% 0.00 in
07:09 31.9 °F 29.8 °F 29.69 in North 3.0 mph 7.0 mph 92% 0.00 in
07:14 31.9 °F 29.8 °F 29.69 in North 2.0 mph 6.0 mph 92% 0.00 in
07:19 31.8 °F 29.7 °F 29.69 in NNE 5.0 mph 6.0 mph 92% 0.00 in
07:24 31.7 °F 29.6 °F 29.69 in NNE 3.0 mph 6.0 mph 92% 0.00 in
07:29 31.7 °F 29.6 °F 29.69 in NNE 3.0 mph 6.0 mph 92% 0.00 in
07:34 31.7 °F 29.6 °F 29.70 in NNE 3.0 mph 5.0 mph 92% 0.00 in
07:39 31.7 °F 29.6 °F 29.70 in NNE 3.0 mph 7.0 mph 92% 0.00 in
07:44 31.7 °F 29.6 °F 29.70 in NNE 4.0 mph 7.0 mph 92% 0.00 in
07:49 31.6 °F 29.5 °F 29.70 in NNE 4.0 mph 6.0 mph 92% 0.00 in
07:54 31.7 °F 29.6 °F 29.70 in North 4.0 mph 7.0 mph 92% 0.00 in
07:59 31.6 °F 29.5 °F 29.70 in North 3.0 mph 8.0 mph 92% 0.00 in
08:04 31.5 °F 29.4 °F 29.70 in NNE 5.0 mph 6.0 mph 92% 0.00 in
08:09 31.5 °F 29.4 °F 29.70 in NNE 3.0 mph 6.0 mph 92% 0.00 in
08:14 31.5 °F 29.4 °F 29.70 in North 3.0 mph 5.0 mph 92% 0.00 in
08:19 31.5 °F 29.4 °F 29.70 in North 2.0 mph 5.0 mph 92% 0.00 in
08:24 31.5 °F 29.7 °F 29.70 in North 3.0 mph 4.0 mph 93% 0.00 in
08:29 31.5 °F 29.7 °F 29.70 in North 3.0 mph 6.0 mph 93% 0.00 in
08:34 31.4 °F 29.3 °F 29.70 in North 3.0 mph 7.0 mph 92% 0.00 in
08:39 31.5 °F 29.4 °F 29.70 in North 3.0 mph 7.0 mph 92% 0.00 in
08:44 31.4 °F 29.3 °F 29.70 in North 3.0 mph 6.0 mph 92% 0.00 in
08:49 31.4 °F 29.3 °F 29.70 in North 3.0 mph 6.0 mph 92% 0.00 in
08:54 31.4 °F 29.3 °F 29.70 in North 3.0 mph 6.0 mph 92% 0.00 in
08:59 31.5 °F 29.7 °F 29.70 in NNW 1.0 mph 5.0 mph 93% 0.00 in
09:04 31.4 °F 29.6 °F 29.70 in NNE 2.0 mph 6.0 mph 93% 0.00 in
09:09 31.4 °F 29.6 °F 29.70 in NNE 4.0 mph 5.0 mph 93% 0.00 in
09:14 31.4 °F 29.6 °F 29.70 in NNE 4.0 mph 7.0 mph 93% 0.00 in
09:19 31.4 °F 29.6 °F 29.70 in NNE 3.0 mph 7.0 mph 93% 0.00 in
09:24 31.4 °F 29.6 °F 29.70 in North 3.0 mph 5.0 mph 93% 0.00 in
09:29 31.4 °F 29.6 °F 29.71 in NNE 4.0 mph 5.0 mph 93% 0.00 in
09:34 31.4 °F 29.6 °F 29.71 in NNE 3.0 mph 6.0 mph 93% 0.00 in
09:39 31.5 °F 29.7 °F 29.71 in North 3.0 mph 6.0 mph 93% 0.00 in
09:44 31.4 °F 29.6 °F 29.71 in North 3.0 mph 6.0 mph 93% 0.00 in
09:49 31.4 °F 29.6 °F 29.71 in North 3.0 mph 6.0 mph 93% 0.00 in
09:54 31.5 °F 29.7 °F 29.70 in North 2.0 mph 5.0 mph 93% 0.00 in
09:59 31.5 °F 29.7 °F 29.70 in North 1.0 mph 7.0 mph 93% 0.00 in
10:04 31.4 °F 29.3 °F 29.71 in North 4.0 mph 6.0 mph 92% 0.00 in
10:09 31.4 °F 29.3 °F 29.71 in NW 2.0 mph 6.0 mph 92% 0.00 in
10:14 31.4 °F 29.3 °F 29.71 in North 2.0 mph 8.0 mph 92% 0.00 in
10:19 31.4 °F 29.3 °F 29.71 in North 2.0 mph 7.0 mph 92% 0.00 in
10:24 31.4 °F 29.3 °F 29.71 in North 1.0 mph 7.0 mph 92% 0.00 in
10:29 31.4 °F 29.3 °F 29.70 in North 3.0 mph 7.0 mph 92% 0.00 in
10:34 31.5 °F 29.2 °F 29.70 in North 3.0 mph 7.0 mph 91% 0.00 in
10:39 31.6 °F 29.5 °F 29.71 in North 3.0 mph 6.0 mph 92% 0.00 in
10:44 31.6 °F 29.3 °F 29.71 in North 3.0 mph 8.0 mph 91% 0.00 in
10:49 31.7 °F 29.4 °F 29.71 in North 4.0 mph 8.0 mph 91% 0.00 in
10:54 31.6 °F 29.3 °F 29.71 in North 4.0 mph 8.0 mph 91% 0.00 in
10:59 31.7 °F 29.4 °F 29.71 in North 3.0 mph 6.0 mph 91% 0.00 in
11:04 31.7 °F 29.4 °F 29.71 in North 2.0 mph 5.0 mph 91% 0.00 in
11:09 31.8 °F 29.5 °F 29.70 in North 2.0 mph 5.0 mph 91% 0.00 in
11:14 31.7 °F 29.4 °F 29.70 in North 2.0 mph 5.0 mph 91% 0.00 in
11:19 31.6 °F 29.3 °F 29.70 in NNW 3.0 mph 3.0 mph 91% 0.00 in
11:24 31.5 °F 29.2 °F 29.70 in NW 3.0 mph 5.0 mph 91% 0.00 in
11:29 31.6 °F 29.5 °F 29.70 in NNW 6.0 mph 6.0 mph 92% 0.00 in
11:34 31.5 °F 29.4 °F 29.70 in NNW 4.0 mph 6.0 mph 92% 0.00 in
11:39 31.5 °F 29.2 °F 29.70 in NNW 3.0 mph 7.0 mph 91% 0.00 in
11:44 31.6 °F 29.3 °F 29.70 in North 4.0 mph 7.0 mph 91% 0.00 in
11:49 31.6 °F 29.3 °F 29.69 in North 3.0 mph 6.0 mph 91% 0.00 in
11:54 31.6 °F 29.3 °F 29.69 in NNW 3.0 mph 6.0 mph 91% 0.00 in
11:59 31.7 °F 29.4 °F 29.69 in NNW 3.0 mph 5.0 mph 91% 0.00 in
12:04 31.7 °F 29.4 °F 29.69 in NNW 3.0 mph 6.0 mph 91% 0.00 in
12:09 31.7 °F 29.1 °F 29.69 in NW 3.0 mph 5.0 mph 90% 0.00 in
12:14 31.6 °F 29.3 °F 29.68 in NNW 3.0 mph 4.0 mph 91% 0.00 in
12:19 31.7 °F 29.4 °F 29.68 in Calm   5.0 mph 91% 0.00 in
12:24 31.7 °F 29.4 °F 29.68 in NNW 3.0 mph 4.0 mph 91% 0.00 in
12:29 31.7 °F 29.4 °F 29.68 in NW 2.0 mph 5.0 mph 91% 0.00 in
12:34 31.7 °F 29.4 °F 29.68 in NNW 3.0 mph 5.0 mph 91% 0.00 in
12:39 31.7 °F 29.4 °F 29.68 in NW 3.0 mph 5.0 mph 91% 0.00 in
12:44 31.8 °F 29.5 °F 29.69 in NW 3.0 mph 7.0 mph 91% 0.00 in
12:49 32.0 °F 29.7 °F 29.68 in NW 3.0 mph 7.0 mph 91% 0.00 in
12:54 32.0 °F 29.7 °F 29.68 in WNW 3.0 mph 7.0 mph 91% 0.00 in
12:59 31.8 °F 29.5 °F 29.68 in NW 3.0 mph 7.0 mph 91% 0.00 in
13:04 31.9 °F 29.6 °F 29.68 in NW 3.0 mph 7.0 mph 91% 0.00 in
13:09 32.0 °F 29.7 °F 29.68 in WNW 3.0 mph 6.0 mph 91% 0.00 in
13:14 32.1 °F 29.5 °F 29.68 in WNW 2.0 mph 8.0 mph 90% 0.00 in
13:19 32.2 °F 29.6 °F 29.67 in WNW 4.0 mph 7.0 mph 90% 0.00 in
13:24 32.2 °F 29.6 °F 29.67 in NW 4.0 mph 5.0 mph 90% 0.00 in
13:29 32.1 °F 29.5 °F 29.67 in West 1.0 mph 5.0 mph 90% 0.00 in
13:34 32.0 °F 29.4 °F 29.67 in NW 4.0 mph 6.0 mph 90% 0.00 in
13:39 32.1 °F 29.5 °F 29.67 in NW 3.0 mph 6.0 mph 90% 0.00 in
13:44 32.0 °F 29.4 °F 29.67 in NW 2.0 mph 6.0 mph 90% 0.00 in
13:49 31.9 °F 29.3 °F 29.67 in NW 3.0 mph 7.0 mph 90% 0.00 in
13:54 32.0 °F 29.4 °F 29.67 in NW 3.0 mph 7.0 mph 90% 0.00 in
13:59 32.1 °F 29.2 °F 29.67 in NNW 3.0 mph 6.0 mph 89% 0.00 in
14:04 32.2 °F 29.3 °F 29.67 in West 1.0 mph 6.0 mph 89% 0.00 in
14:09 32.3 °F 29.1 °F 29.67 in WNW 3.0 mph 6.0 mph 88% 0.00 in
14:14 32.4 °F 29.2 °F 29.67 in WNW 3.0 mph 8.0 mph 88% 0.00 in
14:19 32.6 °F 29.4 °F 29.67 in WNW 3.0 mph 8.0 mph 88% 0.00 in
14:24 32.6 °F 29.4 °F 29.67 in NW 2.0 mph 6.0 mph 88% 0.00 in
14:29 32.8 °F 29.4 °F 29.67 in WNW 4.0 mph 6.0 mph 87% 0.00 in
14:34 32.7 °F 29.3 °F 29.67 in NNW 4.0 mph 5.0 mph 87% 0.00 in
14:39 32.8 °F 29.4 °F 29.67 in WNW 3.0 mph 5.0 mph 87% 0.00 in
14:44 32.9 °F 29.7 °F 29.67 in NW 2.0 mph 5.0 mph 88% 0.00 in
14:49 32.9 °F 29.5 °F 29.67 in WNW 2.0 mph 6.0 mph 87% 0.00 in
14:54 33.0 °F 29.6 °F 29.67 in WNW 3.0 mph 6.0 mph 87% 0.00 in
14:59 33.1 °F 29.7 °F 29.67 in NW 2.0 mph 6.0 mph 87% 0.00 in
15:04 33.2 °F 29.8 °F 29.67 in NNW 2.0 mph 6.0 mph 87% 0.00 in
15:09 33.3 °F 29.8 °F 29.67 in WNW 3.0 mph 4.0 mph 87% 0.00 in
15:14 33.3 °F 29.8 °F 29.67 in West 2.0 mph 6.0 mph 87% 0.00 in
15:19 33.4 °F 29.9 °F 29.67 in WNW 2.0 mph 6.0 mph 87% 0.00 in
15:24 33.4 °F 29.7 °F 29.67 in NW 3.0 mph 5.0 mph 86% 0.01 in
15:29 33.5 °F 29.8 °F 29.67 in West 3.0 mph 7.0 mph 86% 0.01 in
15:34 33.5 °F 29.5 °F 29.67 in WNW 5.0 mph 8.0 mph 85% 0.01 in
15:39 33.6 °F 29.0 °F 29.67 in NW 6.0 mph 7.0 mph 83% 0.01 in
15:44 33.6 °F 29.0 °F 29.67 in WNW 5.0 mph 11.0 mph 83% 0.01 in
15:49 33.6 °F 29.0 °F 29.67 in WNW 5.0 mph 11.0 mph 83% 0.01 in
15:54 33.7 °F 29.4 °F 29.67 in WNW 4.0 mph 8.0 mph 84% 0.01 in
15:59 33.7 °F 29.1 °F 29.68 in NW 5.0 mph 7.0 mph 83% 0.02 in
16:04 33.7 °F 29.1 °F 29.68 in WNW 4.0 mph 9.0 mph 83% 0.02 in
16:09 33.7 °F 29.4 °F 29.68 in NW 4.0 mph 7.0 mph 84% 0.02 in
16:14 33.6 °F 29.0 °F 29.68 in NNW 3.0 mph 7.0 mph 83% 0.02 in
16:19 33.6 °F 29.3 °F 29.68 in WNW 4.0 mph 6.0 mph 84% 0.02 in
16:24 33.6 °F 29.3 °F 29.68 in NW 5.0 mph 6.0 mph 84% 0.01 in
16:29 33.6 °F 29.3 °F 29.68 in NNW 3.0 mph 6.0 mph 84% 0.01 in
16:34 33.5 °F 29.2 °F 29.68 in NW 4.0 mph 6.0 mph 84% 0.01 in
16:39 33.5 °F 29.2 °F 29.69 in Calm   5.0 mph 84% 0.01 in
16:44 33.5 °F 29.2 °F 29.69 in NW 1.0 mph 5.0 mph 84% 0.01 in
16:49 33.5 °F 29.2 °F 29.69 in NW 2.0 mph 6.0 mph 84% 0.01 in
16:54 33.5 °F 29.5 °F 29.69 in NW 3.0 mph 6.0 mph 85% 0.01 in
16:59 33.5 °F 29.5 °F 29.69 in NW 3.0 mph 6.0 mph 85% 0.00 in
17:04 33.5 °F 29.5 °F 29.69 in NW 3.0 mph 6.0 mph 85% 0.00 in
17:09 33.5 °F 29.5 °F 29.69 in NW 3.0 mph 6.0 mph 85% 0.00 in
17:14 33.4 °F 29.4 °F 29.69 in NW 2.0 mph 5.0 mph 85% 0.00 in
17:19 33.4 °F 29.4 °F 29.69 in WNW 2.0 mph 6.0 mph 85% 0.00 in
17:24 33.4 °F 29.4 °F 29.69 in West 1.0 mph 7.0 mph 85% 0.00 in
17:29 33.3 °F 29.3 °F 29.70 in NNW 1.0 mph 4.0 mph 85% 0.00 in
17:34 33.4 °F 29.4 °F 29.70 in NNW 1.0 mph 5.0 mph 85% 0.00 in
17:39 33.3 °F 29.3 °F 29.70 in NNW 2.0 mph 4.0 mph 85% 0.01 in
17:44 33.3 °F 29.3 °F 29.70 in NNW 1.0 mph 3.0 mph 85% 0.01 in
17:49 33.3 °F 29.6 °F 29.70 in NNW 1.0 mph 3.0 mph 86% 0.01 in
17:54 33.2 °F 29.5 °F 29.70 in NNW 2.0 mph 7.0 mph 86% 0.01 in
17:59 33.2 °F 29.2 °F 29.70 in NW 3.0 mph 7.0 mph 85% 0.01 in
18:04 33.1 °F 29.1 °F 29.70 in NNW 2.0 mph 7.0 mph 85% 0.01 in
18:09 33.1 °F 29.1 °F 29.70 in NW 1.0 mph 4.0 mph 85% 0.01 in
18:14 33.0 °F 29.0 °F 29.70 in NW 4.0 mph 6.0 mph 85% 0.01 in
18:19 33.0 °F 29.0 °F 29.70 in NNW 3.0 mph 6.0 mph 85% 0.01 in
18:24 33.0 °F 29.3 °F 29.70 in NW 1.0 mph 6.0 mph 86% 0.01 in
18:29 33.0 °F 29.3 °F 29.71 in NNW 5.0 mph 5.0 mph 86% 0.01 in
18:34 32.9 °F 29.2 °F 29.71 in WNW 5.0 mph 5.0 mph 86% 0.01 in
18:39 32.9 °F 29.2 °F 29.71 in NNW 2.0 mph 6.0 mph 86% 0.00 in
18:44 32.8 °F 29.1 °F 29.71 in NNW 2.0 mph 4.0 mph 86% 0.00 in
18:49 32.8 °F 29.1 °F 29.71 in NNW 3.0 mph 5.0 mph 86% 0.00 in
18:54 32.8 °F 29.1 °F 29.71 in NNW 3.0 mph 5.0 mph 86% 0.00 in
18:59 32.8 °F 29.4 °F 29.72 in NW 2.0 mph 5.0 mph 87% 0.00 in
19:04 32.7 °F 29.3 °F 29.72 in NW 2.0 mph 5.0 mph 87% 0.00 in
19:09 32.7 °F 29.3 °F 29.72 in NW 2.0 mph 5.0 mph 87% 0.00 in
19:14 32.6 °F 29.2 °F 29.72 in NNW 3.0 mph 5.0 mph 87% 0.00 in
19:19 32.6 °F 29.2 °F 29.72 in NW 1.0 mph 5.0 mph 87% 0.00 in
19:24 32.6 °F 29.2 °F 29.72 in WNW 2.0 mph 7.0 mph 87% 0.00 in
19:29 32.5 °F 29.1 °F 29.73 in WNW 3.0 mph 7.0 mph 87% 0.00 in
19:34 32.5 °F 29.1 °F 29.73 in WNW 2.0 mph 7.0 mph 87% 0.00 in
19:39 32.5 °F 29.1 °F 29.73 in WNW 3.0 mph 7.0 mph 87% 0.00 in
19:44 32.5 °F 29.1 °F 29.72 in NNW 1.0 mph 6.0 mph 87% 0.00 in
19:49 32.5 °F 29.1 °F 29.73 in NW 1.0 mph 4.0 mph 87% 0.00 in
19:54 32.5 °F 29.3 °F 29.73 in WNW 2.0 mph 5.0 mph 88% 0.00 in
19:59 32.5 °F 29.3 °F 29.72 in WNW 2.0 mph 5.0 mph 88% 0.00 in
20:04 32.5 °F 29.3 °F 29.72 in West 1.0 mph 3.0 mph 88% 0.00 in
20:09 32.5 °F 29.3 °F 29.73 in West 3.0 mph 4.0 mph 88% 0.00 in
20:14 32.4 °F 29.2 °F 29.73 in WNW 1.0 mph 4.0 mph 88% 0.00 in
20:19 32.5 °F 29.3 °F 29.73 in WNW 3.0 mph 4.0 mph 88% 0.00 in
20:24 32.5 °F 29.3 °F 29.73 in WNW 2.0 mph 4.0 mph 88% 0.00 in
20:29 32.5 °F 29.3 °F 29.72 in WNW 2.0 mph 5.0 mph 88% 0.00 in
20:34 32.4 °F 29.2 °F 29.72 in WNW 2.0 mph 5.0 mph 88% 0.00 in
20:39 32.5 °F 29.3 °F 29.72 in West 2.0 mph 4.0 mph 88% 0.00 in
20:44 32.5 °F 29.3 °F 29.73 in West 3.0 mph 5.0 mph 88% 0.00 in
20:49 32.5 °F 29.3 °F 29.73 in WNW 2.0 mph 5.0 mph 88% 0.00 in
20:54 32.5 °F 29.3 °F 29.73 in WSW 2.0 mph 5.0 mph 88% 0.00 in
20:59 32.5 °F 29.3 °F 29.72 in Calm   5.0 mph 88% 0.00 in
21:04 32.6 °F 29.4 °F 29.72 in WSW 1.0 mph 4.0 mph 88% 0.00 in
21:09 32.5 °F 29.3 °F 29.72 in West 3.0 mph 4.0 mph 88% 0.00 in
21:14 32.6 °F 29.7 °F 29.72 in West 2.0 mph 4.0 mph 89% 0.00 in
21:19 32.6 °F 29.7 °F 29.73 in WSW 2.0 mph 3.0 mph 89% 0.00 in
21:24 32.6 °F 29.7 °F 29.72 in Calm   2.0 mph 89% 0.00 in
21:29 32.7 °F 29.8 °F 29.72 in WSW 1.0 mph 4.0 mph 89% 0.00 in
21:34 32.8 °F 29.9 °F 29.72 in WSW 2.0 mph 4.0 mph 89% 0.00 in
21:39 32.7 °F 29.8 °F 29.72 in WSW 2.0 mph 4.0 mph 89% 0.00 in
21:44 32.8 °F 29.9 °F 29.72 in WSW 3.0 mph 6.0 mph 89% 0.00 in
21:49 32.9 °F 30.0 °F 29.72 in WSW 3.0 mph 6.0 mph 89% 0.00 in
21:54 33.0 °F 30.1 °F 29.71 in WSW 3.0 mph 8.0 mph 89% 0.00 in
21:59 33.0 °F 30.1 °F 29.72 in West 3.0 mph 8.0 mph 89% 0.00 in
22:04 33.1 °F 30.2 °F 29.72 in West 4.0 mph 7.0 mph 89% 0.00 in
22:09 33.3 °F 30.1 °F 29.72 in West 6.0 mph 9.0 mph 88% 0.00 in
22:14 33.3 °F 30.1 °F 29.72 in West 2.0 mph 8.0 mph 88% 0.00 in
22:19 33.5 °F 30.3 °F 29.72 in WSW 2.0 mph 8.0 mph 88% 0.00 in
22:24 33.5 °F 30.0 °F 29.72 in NNW 3.0 mph 8.0 mph 87% 0.00 in
22:29 33.6 °F 30.1 °F 29.72 in WSW 4.0 mph 10.0 mph 87% 0.00 in
22:34 33.6 °F 30.1 °F 29.72 in West 4.0 mph 10.0 mph 87% 0.00 in
22:39 33.6 °F 29.9 °F 29.72 in West 4.0 mph 9.0 mph 86% 0.00 in
22:44 33.7 °F 30.0 °F 29.72 in West 4.0 mph 9.0 mph 86% 0.00 in
22:49 33.7 °F 30.0 °F 29.71 in West 3.0 mph 8.0 mph 86% 0.00 in
22:54 33.6 °F 29.9 °F 29.71 in West 12.0 mph 12.0 mph 86% 0.00 in
22:59 33.7 °F 29.7 °F 29.72 in West 4.0 mph 12.0 mph 85% 0.00 in
23:04 33.7 °F 29.7 °F 29.72 in West 5.0 mph 12.0 mph 85% 0.00 in
23:09 33.7 °F 29.4 °F 29.72 in West 5.0 mph 10.0 mph 84% 0.00 in
23:14 33.7 °F 29.4 °F 29.71 in West 4.0 mph 9.0 mph 84% 0.00 in
23:19 33.7 °F 29.4 °F 29.71 in WNW 3.0 mph 8.0 mph 84% 0.00 in
23:24 33.7 °F 29.4 °F 29.71 in WNW 4.0 mph 7.0 mph 84% 0.00 in
23:29 33.8 °F 29.2 °F 29.71 in West 2.0 mph 9.0 mph 83% 0.00 in
23:34 33.8 °F 29.2 °F 29.71 in West 4.0 mph 9.0 mph 83% 0.00 in
23:39 33.8 °F 29.5 °F 29.71 in West 3.0 mph 7.0 mph 84% 0.00 in
23:44 33.8 °F 29.5 °F 29.71 in West 4.0 mph 8.0 mph 84% 0.00 in
23:49 33.8 °F 29.5 °F 29.71 in WSW 4.0 mph 10.0 mph 84% 0.00 in
23:54 33.9 °F 29.6 °F 29.70 in WSW 1.0 mph 6.0 mph 84% 0.00 in
23:59 33.8 °F 29.5 °F 29.70 in West 3.0 mph 5.0 mph 84% 0.00 in
Buffalo, New York, USA
Compliments of Weather Underground - 2.5 mb